Location: Ferintosh
(52.7647°N, 112.9692°W)
Time: 23:20:42
(UTC+00:00)

A-11 Canister half - Pass Details

Date: 25 May 2024
Orbit: 1524 x 1683 km, 47.3° (Epoch: 20 June)

Event Time Altitude Azimuth Distance (km) Brightness Sun altitude
Rises 05:56:48 0° 250° (WSW) 4,695 11.6 -13.5°
Reaches altitude 10° 05:59:51 10° 247° (WSW) 3,727 11.0 -13.7°
Maximum altitude 06:09:04 62° 170° (S) 1,748 9.0 -14.2°
Drops below altitude 10° 06:18:38 10° 94° (E) 3,849 10.9 -14.6°
Sets 06:21:50 0° 91° (E) 4,856 11.4 -14.8°
